Airfield :
LOGIN :

Register | Disclaimer

   EN    FR    IT 

 










Legend :    VFR   Marginal VFR   IFR   Intensive IFR   Very Intensive IFR
Visi :
Ceiling :
>= 8 km
>= 3000ft
5 to 8 km
1000 to 3000 ft
1500m to 5 km
500 to 1000 ft
800 to 1500m
200 to 500 ft
< 800m
< 200 ft
Symbols :   Thunderstorms  Fog  Heavy snow  Heavy precipitations  Wind > 20 kt
SIGMETs :     Misc.  Thunderstorms  Icing  Turbulence  Mountain Waves  Volcanic Ashes






- Airport Elevation : 446 ft
- IATA code : VNE


LFRV - Vannes-Meucon

CURRENT METAR :
  • 231030Z AUTO 33015G27KT 300V010 9999 BKN023 OVC028 06/03 Q0995

EXPIRED METARs :
  • 231000Z AUTO 33015G25KT 300V360 9999 BKN018 OVC023 05/03 Q0994
  • 230930Z AUTO 33013KT 300V010 9999 OVC014 04/02 Q0993
  • 230900Z AUTO 32013KT 280V350 9999 OVC013 05/03 Q0991
  • 230830Z AUTO 30013KT 280V340 9999 BKN018 OVC024 05/03 Q0990
  • 230800Z AUTO 29009KT 9999 BKN019 05/04 Q0990

TAF N/A



MET'MAP, your aeronautical weather chart ! - Copyright ORBIFLY December 2007 - Disclaimer

ORBIFLY MET'MAP TEAM :

Programming & Development : Alexandra Zaïnal
Concept & original design : Baudouin d'Aumeries
Assistance for programming : Marc-Olivier Méhu
Technical & hardware support : Manuel Goepfert

Contact : metmap@orbifly.com




SOURCES & CREDITS :

   NOAA